Terminal Aerodrome Forecast
Issued by NWS Des Moines, IA

Home | Current Version | Previous Version | Text Only | Print | Product List | Glossary On
Versions: 1 2 3 4 5 6 7 8 9 10 11 12 13 14 15 16 17 18 19 20 21 22 23 24 25 26 27 28 29 30 31 32 33
000
FTUS43 KDMX 030539
TAFALO
TAF
KALO 030539Z 0306/0406 31006KT P6SM SKC
     FM031600 30011G18KT P6SM SCT050
     FM040000 29002KT P6SM SKC=

USA.gov is the U.S. government's official web portal to all federal, state and local government web resources and services.